Content
SEND FEEDBACK

Daily
Averages
Monthly
Summary
United States of America

CHICAGO, ILLINOIS


Home > North America > United States > Illinois
Elevation: 674 feet     Latitude: 41 59N     Longitude: 087 54W

WEATHER
 
SELECT A DAY
Number of Records: 197,818;   Date Range: 7/8/95 - 10/20/14
 
SHARE

PRINT THIS DATA

[ ← Previous Day ]
WEATHER ALMANAC - MARCH 21, 2014
[ Next Day → ]
[ °C ]   °F
Weather ElementAverageHighLow
Temperature40.7 °F57 °F (6:52 pm)27 °F (5:52 am)
Dewpoint31.8 °F39.9 °F (8:52 pm)23 °F (4:52 am)
Humidity72.1 %92 % (7:05 am)49 % (6:52 pm)
Barometer29.90 in30.04 in (1:52 am)29.66 in (5:52 pm)
Wind Speed8.2 mph21.9 mph (4:52 pm)
Wind Gust26.5 mph (4:52 pm)
Weather ElementAverage
Visibility7.9 mi
Wind DirectionSE (137 °)

Weather ElementTotal
Precipitation---
Heating Degree Days23 (Base 65)
Averaged from 27 records on March 21, 2014
WEATHER CONDITIONS BREAKOUT
WIND DIRECTION BREAKOUT
WEATHER BY HOUR - MARCH 21, 2014
[ °C ]   °F
Local TimeTemperatureDewpointHumidityBarometerVisibilityWind DirectionWind SpeedGust SpeedPrecipitationEventsConditions
1:52 AM33.1 °F25.0 °F72 %30.04 in10.0 miCalmPartly Cloudy
2:52 AM30.9 °F24.1 °F76 %30.04 in10.0 miCalmClear
3:52 AM30.0 °F24.1 °F79 %30.00 in10.0 miCalmClear
4:52 AM28.0 °F23.0 °F81 %30.00 in9.0 miCalmClear
5:52 AM27.0 °F23.0 °F85 %30.00 in8.0 miCalmClear
6:52 AM28.9 °F25.0 °F85 %30.01 in5.0 miEast (100°)3.5 mphClear
7:05 AM30.9 °F28.9 °F92 %29.99 in2.0 miEast (100°)5.8 mphPartly Cloudy
7:23 AM32.0 °F30.0 °F92 %29.99 in2.0 miESE (110°)6.9 mphMostly Cloudy
7:52 AM33.1 °F30.9 °F92 %30.01 in2.5 miESE (120°)8.1 mphOvercast
8:25 AM34.0 °F30.9 °F89 %29.98 in2.5 miESE (120°)8.1 mphMostly Cloudy
8:29 AM34.0 °F32.0 °F92 %29.98 in4.0 miESE (120°)6.9 mphScattered Clouds
8:52 AM35.1 °F32.0 °F89 %29.99 in5.0 miESE (110°)8.1 mphClear
9:52 AM37.9 °F32.0 °F79 %29.99 in7.0 miSE (130°)9.2 mphClear
10:52 AM39.9 °F32.0 °F73 %29.97 in8.0 miESE (110°)9.2 mphClear
11:52 AM44.1 °F33.1 °F65 %29.94 in10.0 miEast (100°)5.8 mphClear
12:52 PM45.0 °F34.0 °F65 %29.88 in10.0 miESE (120°)10.4 mphClear
1:52 PM46.0 °F34.0 °F63 %29.85 in9.0 miESE (120°)12.7 mphClear
2:52 PM48.9 °F35.1 °F59 %29.81 in10.0 miESE (120°)11.5 mph19.6 mphClear
3:52 PM52.0 °F36.0 °F54 %29.75 in10.0 miSE (140°)12.7 mphClear
4:52 PM55.0 °F39.0 °F55 %29.72 in10.0 miSouth (180°)21.9 mph26.5 mphMostly Cloudy
5:52 PM55.9 °F39.0 °F53 %29.66 in10.0 miSouth (180°)12.7 mphOvercast
6:52 PM57.0 °F37.9 °F49 %29.73 in10.0 miWSW (240°)8.1 mphOvercast
7:52 PM54.0 °F39.0 °F57 %29.72 in10.0 miWNW (290°)6.9 mph19.6 mph0.00 inOvercast
8:52 PM52.0 °F39.9 °F63 %29.73 in10.0 miWest (280°)10.4 mph19.6 mphOvercast
9:52 PM46.9 °F34.0 °F61 %29.77 in10.0 miWNW (300°)16.1 mph23.0 mphMostly Cloudy
10:52 PM46.0 °F32.0 °F58 %29.79 in10.0 miNW (310°)12.7 mphClear
11:52 PM42.1 °F33.1 °F70 %29.83 in10.0 miWNW (300°)15.0 mphMostly Cloudy
Hourly data recorded from KPWK, located miles away from Chicago, Illinois







STORIES FROM OUR PARTNERS